Regional Weather Roundup
Issued by NWS

Home | Current Version | Previous Version | Graphics & Text | Print | Product List | Glossary On
Versions: 1 2 3 4 5 6 7 8 9 10 11 12 13 14 15 16 17 18 19 20 21 22 23 24 25 26 27 28 29 30 31 32 33 34 35 36 37 38 39 40 41 42 43 44 45 46 47 48 49 50
000
ASUS43 KLMK 230402
RWRKY
KENTUCKY REGIONAL WEATHER ROUNDUP
NATIONAL WEATHER SERVICE LOUISVILLE KY
1200 AM EDT TUE SEP 23 2014

NOTE "FAIR" INDICATES FEW OR NO CLOUDS BELOW 12,000 FEET
WITH NO SIGNIFICANT WEATHER AND/OR OBSTRUCTIONS TO VISIBILITY.

KYZ001>023-026-027-061>063-070>075-230500-
WESTERN AND SOUTH CENTRAL KENTUCKY

CITY           SKY/WX    TMP DP  RH WIND       PRES   REMARKS
PADUCAH        CLEAR     52  46  80 CALM      30.24R
HENDERSON      CLEAR     48  45  87 CALM      30.26S
OWENSBORO      CLEAR     58  49  72 NE5       30.26S
HOPKINSVILLE   CLEAR     52  46  78 N5        30.25R
BOWLING GREEN  CLEAR    N/A N/A N/A CALM      30.25S
GLASGOW        NOT AVBL
$$

KYZ024-025-028>034-038-045-046-053-230500-
NORTH CENTRAL KENTUCKY

CITY           SKY/WX    TMP DP  RH WIND       PRES   REMARKS
LOUISVILLE/SDF CLEAR     57  47  69 CALM      30.27R
LOUISVILLE/LOU CLEAR     54  47  77 CALM      30.27R
FORT KNOX      CLEAR     49  44  85 N6        30.26R
$$

KYZ035>037-039>044-047>052-055>060-089>105-230500-
NORTHEAST KENTUCKY

CITY           SKY/WX    TMP DP  RH WIND       PRES   REMARKS
LEXINGTON      CLEAR     52  44  74 NE5       30.27R
COVINGTON      CLEAR     53  43  68 N7        30.28R
FRANKFORT      CLEAR     48  44  86 CALM      30.27R
$$

KYZ054-064>069-076>088-106>120-230500-
SOUTHEAST KENTUCKY

CITY           SKY/WX    TMP DP  RH WIND       PRES   REMARKS
JACKSON        CLEAR     54  45  71 CALM      30.26S
LONDON         CLEAR     52  47  83 CALM      30.26S
SOMERSET       CLEAR     50  46  87 CALM      30.27S
MIDDLESBORO    CLEAR     50  49  97 CALM      30.26S
MONTICELLO     CLEAR     46  44  93 CALM      30.27S
$$



USA.gov is the U.S. government's official web portal to all federal, state and local government web resources and services.